Location: Brabourne
(51.1333°N, 1.0000°E)
Time: 06:18:31
(UTC+00:00)

NOSS 3-1 (A) - Pass Details

Date: 24 October 2021
Orbit: 721 x 1491 km, 63.4° (Epoch: 22 November)

Event Time Altitude Azimuth Distance (km) Brightness Sun altitude
Rises 21:30:07 0° 274° (W) 3,405 6.9 -42.9°
Reaches altitude 10° 21:32:42 10° 284° (WNW) 2,566 6.2 -43.2°
Enters shadow 21:34:55 21° 301° (WNW) 1,982 5.5 -43.4°
